RH
19 24 31 38 44 48 62 69 70 49 39 29 27 30 30 34 36 34 29 23 24 32 27 30 29 28 28 30 29 30 39 35 29 29 23 22 28 34 30 28 28 29 30 38 46
19 18 21 31 37 40 43 66 67 68 53 37 28 30 34 41 42 38 31 31 32 30 28 31 31 32 32 29 33 33 35 31 28 28 27 27 30 32 32 29 26 29 31 33 37
22 19 18 19 28 39 49 46 67 65 65 48 30 31 36 46 49 39 39 35 34 30 26 33 35 36 35 33 34 32 30 25 22 26 27 31 32 32 34 32 27 26 28 32 32
23 26 22 22 20 27 41 45 51 71 71 56 35 32 40 52 58 53 49 50 42 37 32 34 36 39 36 36 35 35 33 29 24 28 33 31 32 34 33 31 30 31 30 36 32
31 25 27 24 24 21 28 40 52 62 75 64 43 36 42 53 56 58 55 53 56 51 42 39 38 36 36 32 33 35 34 31 29 27 33 32 32 33 31 31 25 25 28 31 35
34 34 31 26 24 24 29 39 52 57 79 72 49 40 45 54 59 58 58 56 57 58 60 51 43 42 44 40 43 42 39 35 30 29 29 30 27 29 26 21 25 26 25 26 28
42 38 36 34 27 27 23 38 57 60 74 70 60 46 50 49 57 57 61 57 61 67 61 63 59 48 49 49 50 46 47 42 35 29 31 31 32 30 24 23 22 21 21 20 22
45 52 47 36 28 25 25 33 49 67 73 76 67 50 52 48 51 53 56 61 59 66 73 78 73 64 59 54 50 47 47 47 30 30 31 36 35 26 27 26 25 23 23 22 21
58 59 58 50 34 32 36 27 50 75 82 71 69 58 49 44 48 51 52 61 67 71 82 91 80 73 68 61 58 54 52 47 42 37 37 37 37 32 35 30 30 28 26 24 22
68 66 63 52 58 48 47 36 46 61 81 86 78 70 48 43 44 51 56 62 70 72 80 89 82 75 70 67 62 55 56 51 48 48 42 41 39 35 33 32 30 30 28 28 27
68 71 68 69 69 60 58 44 49 82 82 81 75 66 47 44 43 49 56 66 69 71 77 79 76 70 66 61 58 55 57 54 50 44 42 39 34 31 27 26 23 24 25 26 26
77 78 77 84 71 61 56 49 63 82 86 88 83 77 62 47 48 50 54 63 69 75 74 73 71 62 61 58 55 54 54 52 47 42 39 35 30 26 21 18 18 19 19 19 20
83 83 90 92 69 63 49 41 83 82 95 98 78 79 64 50 50 50 55 60 68 73 76 73 66 63 61 58 56 53 52 49 46 41 38 34 27 22 18 17 17 17 18 18 18
83 92 98 98 88 66 52 46 91 99 99 98 91 82 64 58 51 54 57 61 67 76 75 76 68 62 60 58 52 51 45 45 43 45 47 39 47 23 17 16 16 16 17 17 17
86 94 92 98 91 71 54 60 95 98 97 95 95 82 63 62 50 58 62 62 64 69 73 70 65 63 58 51 48 47 45 44 44 47 48 40 50 25 17 17 16 17 18 17 18
83 85 86 89 89 61 58 90 98 98 97 95 92 82 66 65 55 56 62 60 65 67 65 67 59 55 53 48 47 47 46 45 49 51 62 44 41 24 18 17 18 20 22 22 19
74 85 95 84 83 55 64 97 97 97 96 97 87 77 66 62 57 57 59 60 62 69 72 63 58 51 47 48 46 49 49 65 70 70 59 34 41 20 18 22 21 22 23 26 26
80 89 93 82 75 59 71 88 95 92 95 84 82 82 72 59 56 59 59 59 55 53 59 62 59 49 44 46 50 53 56 66 63 61 52 41 40 28 21 20 29 31 32 33 33
87 87 94 82 86 58 78 91 97 88 84 81 84 86 81 67 56 61 60 57 52 50 57 59 56 47 50 49 51 60 65 55 65 52 60 40 25 22 27 29 33 31 33 34 36
89 90 94 85 73 70 87 94 98 85 75 73 79 72 76 67 55 55 60 52 54 49 49 54 58 51 54 54 54 58 53 68 71 73 61 40 38 43 38 40 38 39 43 46 42
81 93 85 73 91 92 94 98 96 85 81 76 65 65 64 60 58 57 55 51 49 48 49 52 55 61 61 61 56 59 63 63 66 73 78 66 52 45 49 50 48 46 49 58 58
82 82 69 69 86 89 97 99 91 89 82 72 65 61 60 55 61 57 54 57 53 56 57 59 62 69 63 53 55 58 64 69 80 73 75 76 61 51 57 55 58 59 52 59 63
76 86 73 70 91 97 99 94 88 91 84 75 69 61 57 63 66 63 61 59 59 58 61 59 67 68 71 63 62 65 69 72 76 78 80 91 60 53 56 66 66 67 65 67 69
66 73 77 90 87 94 99 94 96 91 86 77 68 60 59 62 61 62 63 60 56 58 56 60 64 67 69 68 71 83 79 77 83 91 82 75 63 63 65 72 82 78 78 73 69
67 79 81 91 91 94 96 91 89 83 81 76 76 67 63 63 62 62 60 62 60 60 63 65 73 70 70 69 74 81 82 84 92 90 90 77 83 80 88 89 87 87 84 76 76
69 68 73 73 77 80 83 92 87 81 76 69 72 71 64 62 61 58 58 59 62 67 68 67 77 83 84 81 81 85 83 84 86 91 90 94 93 93 95 90 84 82 81 76 68
66 64 70 67 71 75 80 81 81 75 73 67 64 66 69 67 62 63 62 65 68 70 72 80 89 94 92 79 83 89 85 87 90 88 90 95 94 92 88 86 81 83 80 72 66